Wind_Speed
3 4 3 3 3 3 3 3 3 3 3 2 2 3 3 3 3 2 2 2 2 3 4 4 4 4 4 4 4 5 5 5 5 5 5 5 5 5 5 4 4 4 4
4 4 4 4 4 4 4 3 3 4 3 3 3 4 4 3 4 4 3 3 3 3 4 4 4 5 5 5 5 5 5 5 6 6 6 6 6 6 6 5 5 5 5
4 4 4 4 4 4 4 3 4 4 4 4 4 4 4 4 4 4 4 4 3 3 4 4 5 5 6 6 6 6 6 6 6 6 6 7 7 7 7 7 6 6 6
5 5 4 4 4 4 4 4 5 5 5 5 5 5 5 5 5 4 4 4 4 4 4 5 5 6 7 7 7 7 7 7 6 6 7 7 8 8 8 8 7 7 7
6 5 5 4 5 4 4 5 5 6 6 5 5 5 5 5 4 4 4 5 4 4 4 5 6 7 7 8 8 8 8 7 7 7 7 8 8 8 8 8 8 8 8
7 7 7 6 6 5 6 6 6 6 5 5 6 6 5 4 4 4 5 5 5 5 5 5 6 7 8 8 8 9 9 8 8 7 8 8 8 9 9 9 9 9 9
9 8 8 8 7 7 7 7 6 6 6 6 6 6 6 5 4 5 5 5 5 5 5 5 6 6 7 8 9 9 9 8 8 8 8 9 9 9 9 9 9 9 10
9 9 9 9 9 8 8 7 7 6 6 6 7 7 6 6 5 5 5 5 5 5 5 6 6 6 7 8 8 8 9 8 8 8 9 9 9 10 10 9 9 9 9
10 10 10 10 10 9 8 8 8 7 7 7 7 7 7 7 6 5 5 5 6 6 5 6 6 6 7 7 8 9 9 9 8 8 8 9 9 9 10 10 10 10 10
10 10 11 10 9 9 9 8 8 8 8 7 7 7 8 7 6 6 6 6 5 6 6 6 7 7 7 7 7 8 8 8 9 8 8 8 9 9 9 9 10 10 10
10 10 11 10 9 9 9 9 8 8 8 8 8 8 8 7 7 7 7 7 7 7 7 7 8 8 8 8 8 8 9 9 9 8 8 8 8 8 8 9 10 10 10
10 10 11 10 10 9 9 9 9 9 8 8 8 8 8 8 8 7 7 8 8 8 8 8 8 8 8 8 9 9 9 9 9 8 8 7 7 8 8 9 9 9 10
10 10 10 9 9 9 9 9 9 9 8 8 8 8 8 8 8 8 7 8 8 8 8 8 8 9 8 9 9 10 10 10 9 8 8 7 7 7 8 8 8 9 9
10 10 10 9 9 9 9 9 9 9 9 9 9 9 8 8 7 7 7 8 8 7 7 8 8 8 8 8 9 9 9 10 9 8 7 7 7 7 8 8 8 8 9
9 10 10 10 9 9 9 9 9 9 10 10 9 9 8 8 8 7 8 8 7 7 8 7 7 8 7 7 8 8 9 9 9 8 7 8 7 8 8 8 8 8 8
9 10 10 9 8 8 9 9 9 9 9 10 10 9 9 8 8 8 8 7 7 7 6 7 7 7 7 7 7 8 8 8 7 8 8 8 8 8 8 8 8 9 9
9 9 9 9 9 9 9 9 8 9 9 9 10 10 9 9 8 8 7 7 6 6 6 6 6 6 6 7 7 7 8 8 8 8 8 8 8 8 9 9 9 9 9
9 8 9 9 9 9 9 9 9 9 9 9 9 9 10 9 8 8 7 7 7 7 7 7 6 6 6 6 6 6 6 7 8 7 8 8 8 9 9 9 10 10 10
9 9 9 9 8 8 9 9 9 9 9 9 9 9 9 9 8 8 7 7 7 7 7 7 6 7 7 7 6 6 6 6 7 7 8 8 8 9 9 9 10 10 10
9 9 8 8 8 8 9 8 8 8 8 8 8 8 9 8 8 7 7 7 6 6 6 6 6 6 7 7 6 6 6 6 6 7 8 8 9 9 9 9 9 9 9
8 9 8 9 8 8 8 7 7 7 7 7 7 7 7 6 6 6 6 6 6 6 6 6 6 6 6 6 5 6 6 7 7 7 8 8 7 7 8 8 8 8 8
8 8 8 8 7 7 6 6 6 6 6 6 5 5 5 5 5 5 5 5 5 5 5 5 5 5 5 5 5 5 5 6 7 7 8 7 7 7 7 7 7 7 8
8 8 8 8 7 6 5 5 5 5 4 5 4 4 4 4 5 4 4 4 4 5 4 4 5 5 5 4 5 5 5 6 6 7 7 6 6 7 7 7 8 8 8
8 8 9 7 6 5 4 4 4 4 4 4 4 3 3 4 4 3 4 3 4 4 4 5 5 4 4 5 5 5 6 6 6 6 6 6 6 7 8 8 9 9 9
8 8 7 7 6 5 4 4 4 4 4 4 4 3 3 3 3 4 4 3 3 3 4 4 4 4 4 5 5 5 6 7 6 6 6 6 6 7 7 8 8 9 9
7 7 7 7 7 5 4 4 4 4 4 4 4 4 4 3 3 4 3 3 3 4 4 4 4 4 5 5 5 6 7 7 7 7 7 7 8 8 8 8 9 9 9
Wind_Direction
324 325 307 296 291 285 290 291 284 286 295 303 295 289 285 269 261 259 229 229 229 212 213 211 210 211 212 214 221 220 219 225 223 227 223 224 226 229 226 223 227 232 233
312 318 313 297 294 295 290 285 284 290 287 294 299 298 292 283 273 261 257 253 240 225 217 218 220 216 214 217 222 222 221 226 232 233 233 231 231 230 228 226 232 235 240
302 301 305 298 299 300 295 289 291 293 289 296 296 292 295 291 284 268 261 265 253 237 240 242 236 232 226 223 225 225 226 228 238 239 240 239 233 232 234 235 237 240 245
293 293 295 302 307 303 300 296 298 295 294 293 296 292 292 290 285 274 268 266 258 259 263 256 246 236 233 229 232 231 230 234 240 243 243 239 234 234 236 238 240 246 252
286 286 292 301 303 301 298 302 299 301 300 292 298 298 301 298 294 284 271 264 261 264 269 263 247 239 236 238 240 238 237 238 242 245 243 239 239 238 236 239 243 249 255
285 281 285 292 296 296 297 298 297 296 293 294 294 292 294 293 294 290 280 271 267 267 263 252 245 242 241 243 243 241 240 242 245 250 247 244 241 240 239 241 246 251 253
280 279 282 287 288 291 297 299 298 296 291 293 292 288 290 295 295 294 288 277 267 265 261 255 256 247 244 245 244 243 241 242 248 249 249 249 245 243 242 243 248 253 255
281 278 282 283 280 285 290 294 295 294 295 295 293 291 289 288 295 298 294 284 274 270 265 260 254 250 248 244 241 242 244 245 248 250 251 250 246 245 245 246 249 255 258
285 281 283 282 282 283 284 287 287 287 290 290 293 294 288 284 285 288 290 287 276 269 264 259 251 252 250 249 245 243 244 244 249 252 250 246 246 249 249 249 250 253 256
288 286 286 283 281 282 283 285 286 285 283 287 290 291 288 281 279 282 279 277 274 268 265 258 255 256 250 250 249 247 248 247 249 250 249 248 251 254 251 249 252 255 257
290 292 290 286 282 279 280 282 282 284 282 282 285 288 287 283 281 280 275 269 266 265 264 259 256 258 254 251 254 256 251 251 253 253 253 252 255 256 255 254 255 257 260
286 292 294 288 283 278 277 279 279 282 285 284 285 283 286 283 280 278 272 270 268 264 261 259 257 260 260 259 260 260 255 250 251 251 254 254 255 259 257 257 259 259 263
292 293 291 290 283 278 279 279 277 280 284 283 281 280 285 283 283 283 278 275 271 266 259 256 256 258 261 262 262 260 256 252 251 253 257 259 257 259 261 262 261 262 265
295 291 290 297 289 281 278 277 276 277 278 279 282 283 284 285 287 285 282 277 274 269 260 257 260 260 260 258 259 259 256 249 249 252 255 257 257 262 267 264 263 264 265
298 295 289 294 294 287 281 276 274 275 277 280 282 284 283 283 286 286 286 281 274 268 263 259 261 260 257 253 257 256 254 249 248 247 254 260 261 263 264 266 265 269 268
299 296 293 294 295 288 284 282 278 277 281 288 289 286 284 281 283 283 286 284 276 270 267 262 260 261 254 256 259 259 254 254 251 250 254 259 264 268 267 266 265 266 267
303 297 291 295 291 284 281 284 282 280 283 286 289 285 280 281 282 284 287 286 278 274 269 261 258 260 256 256 258 260 257 252 250 249 254 260 264 271 273 268 263 266 267
304 298 292 293 292 286 286 286 281 282 284 285 285 287 284 283 283 281 283 285 281 273 264 257 260 262 259 255 260 265 263 260 252 253 261 265 269 273 275 272 266 266 268
306 305 302 299 295 292 292 288 284 285 285 288 286 284 284 283 279 277 276 278 279 274 265 262 264 270 265 260 264 266 267 266 255 259 265 268 269 273 276 274 268 270 270
308 310 309 305 299 293 294 290 289 288 289 290 288 285 281 281 279 272 271 275 278 278 273 267 267 267 267 265 262 263 264 265 267 266 266 269 271 276 280 279 268 270 274
314 313 309 303 301 296 294 291 291 290 291 294 292 287 282 281 281 284 282 278 281 281 279 273 267 268 272 266 267 265 262 264 269 268 268 268 273 283 285 281 274 269 273
318 318 314 313 306 301 300 297 294 289 290 295 298 292 283 282 289 294 291 278 279 278 277 273 269 273 274 273 272 271 269 268 265 261 261 267 276 280 281 280 275 274 273
311 313 318 317 311 304 293 296 297 294 298 304 302 298 287 286 297 291 291 279 275 273 271 269 273 276 274 273 270 272 275 266 264 262 265 269 274 274 276 276 279 279 276
308 309 310 312 313 307 299 299 299 299 300 307 302 301 297 294 298 298 305 294 277 273 273 272 268 270 268 271 272 272 272 269 264 261 270 271 276 278 280 279 279 279 279
309 308 308 309 309 306 310 308 304 302 299 300 297 294 297 296 299 308 305 298 278 274 277 272 264 261 262 265 271 277 280 275 272 276 278 278 278 282 282 282 282 283 284
318 310 309 312 311 298 296 304 301 300 298 299 302 300 295 298 305 311 295 289 283 276 278 278 271 264 267 265 271 280 284 276 275 281 286 288 288 288 287 287 285 287 288
Height
5876 5875 5875 5875 5875 5874 5874 5874 5874 5873 5873 5873 5872 5872 5872 5872 5871 5871 5871 5871 5872 5872 5873 5873 5874 5874 5875 5875 5876 5876 5877 5877 5878 5879 5880 5881 5881 5882 5883 5884 5884 5885 5886
5876 5875 5875 5874 5874 5874 5873 5873 5873 5873 5873 5872 5872 5872 5871 5871 5871 5871 5871 5871 5871 5871 5872 5872 5873 5874 5874 5875 5875 5876 5877 5877 5878 5878 5879 5880 5881 5881 5882 5883 5884 5885 5885
5875 5874 5874 5874 5874 5873 5873 5873 5872 5872 5872 5872 5871 5871 5870 5870 5870 5870 5870 5870 5871 5871 5871 5871 5872 5872 5873 5874 5875 5875 5876 5876 5877 5878 5878 5879 5880 5880 5881 5882 5883 5884 5884
5874 5874 5873 5873 5873 5873 5872 5872 5872 5871 5871 5871 5870 5870 5869 5869 5869 5869 5869 5869 5870 5870 5870 5870 5870 5871 5872 5873 5873 5874 5875 5876 5876 5877 5877 5878 5879 5879 5880 5881 5882 5883 5883
5873 5873 5873 5872 5872 5872 5872 5871 5871 5870 5870 5870 5869 5869 5869 5868 5868 5868 5868 5868 5869 5869 5869 5869 5868 5870 5870 5871 5872 5873 5873 5874 5875 5876 5876 5877 5878 5878 5879 5880 5881 5882 5882
5872 5872 5872 5871 5871 5871 5870 5870 5870 5870 5869 5869 5868 5868 5868 5867 5867 5867 5867 5867 5868 5868 5868 5868 5868 5869 5869 5870 5870 5871 5872 5873 5874 5874 5875 5875 5876 5877 5878 5879 5879 5880 5881
5871 5871 5870 5870 5870 5870 5869 5869 5869 5869 5868 5868 5867 5867 5866 5866 5866 5866 5866 5866 5866 5867 5867 5867 5867 5868 5868 5869 5869 5870 5870 5871 5872 5873 5874 5874 5875 5875 5876 5877 5878 5878 5879
5869 5869 5869 5868 5868 5868 5868 5868 5868 5867 5867 5866 5866 5866 5866 5865 5865 5865 5865 5865 5865 5866 5866 5866 5866 5866 5867 5867 5868 5868 5869 5870 5871 5871 5872 5873 5873 5874 5874 5875 5876 5877 5877
5867 5867 5867 5867 5867 5867 5866 5866 5866 5866 5865 5865 5865 5864 5864 5864 5864 5864 5864 5864 5864 5864 5864 5864 5865 5865 5865 5866 5866 5867 5868 5868 5869 5870 5870 5871 5871 5872 5872 5873 5874 5875 5876
5866 5865 5865 5865 5865 5865 5865 5865 5864 5864 5864 5864 5863 5863 5863 5863 5863 5862 5863 5863 5863 5863 5863 5863 5863 5863 5864 5864 5865 5865 5866 5867 5868 5868 5869 5869 5869 5870 5870 5871 5872 5873 5874
5864 5864 5863 5863 5863 5863 5863 5863 5863 5862 5862 5862 5862 5862 5861 5861 5861 5861 5861 5861 5861 5861 5862 5862 5862 5862 5862 5863 5863 5864 5864 5865 5866 5867 5867 5867 5868 5868 5869 5869 5870 5871 5872
5862 5862 5861 5861 5861 5861 5861 5861 5861 5861 5860 5860 5860 5860 5860 5860 5860 5860 5860 5860 5859 5860 5860 5860 5860 5860 5860 5861 5862 5862 5862 5863 5864 5865 5865 5865 5866 5866 5867 5868 5868 5869 5870
5860 5860 5859 5859 5859 5859 5859 5859 5859 5859 5859 5859 5859 5858 5858 5858 5858 5858 5858 5858 5858 5858 5858 5858 5858 5859 5859 5860 5860 5860 5861 5861 5862 5863 5863 5864 5864 5865 5865 5866 5867 5867 5868
5858 5858 5857 5857 5857 5857 5857 5857 5857 5857 5857 5857 5857 5857 5857 5856 5856 5856 5856 5856 5856 5856 5856 5856 5857 5857 5857 5858 5858 5859 5859 5860 5860 5861 5861 5862 5862 5863 5863 5864 5865 5865 5866
5856 5856 5855 5855 5855 5855 5855 5855 5855 5855 5855 5855 5855 5855 5855 5855 5855 5854 5854 5854 5854 5854 5854 5854 5855 5855 5856 5856 5857 5857 5858 5858 5859 5859 5860 5860 5861 5861 5862 5862 5863 5864 5864
5854 5854 5854 5853 5853 5853 5853 5853 5853 5853 5853 5853 5853 5853 5853 5853 5853 5852 5852 5852 5852 5853 5853 5853 5853 5853 5854 5855 5855 5856 5856 5857 5857 5858 5858 5859 5859 5860 5860 5861 5861 5862 5862
5853 5852 5852 5852 5852 5851 5851 5851 5851 5851 5851 5851 5851 5851 5851 5851 5851 5851 5851 5851 5851 5851 5851 5851 5852 5852 5852 5853 5853 5854 5855 5855 5856 5857 5857 5857 5858 5858 5859 5859 5859 5860 5860
5851 5851 5850 5850 5850 5850 5850 5850 5850 5850 5849 5849 5849 5849 5849 5849 5849 5849 5849 5849 5849 5849 5849 5850 5850 5850 5851 5851 5852 5853 5853 5854 5854 5855 5856 5856 5856 5857 5857 5857 5857 5857 5858
5850 5849 5849 5848 5848 5848 5848 5848 5848 5848 5847 5847 5847 5847 5847 5847 5847 5847 5847 5847 5848 5847 5848 5848 5848 5849 5849 5850 5850 5851 5852 5852 5853 5853 5854 5854 5855 5855 5854 5854 5854 5855 5856
5848 5848 5847 5847 5846 5846 5846 5846 5846 5846 5846 5845 5845 5845 5845 5845 5845 5846 5846 5846 5846 5846 5846 5847 5847 5848 5848 5848 5849 5850 5850 5851 5851 5852 5852 5852 5853 5853 5852 5851 5851 5852 5853
5847 5847 5846 5846 5845 5845 5845 5845 5845 5844 5844 5844 5844 5844 5843 5843 5844 5844 5844 5845 5845 5845 5845 5845 5846 5846 5847 5847 5847 5848 5849 5849 5850 5850 5850 5851 5850 5850 5849 5849 5848 5849 5851
5846 5846 5845 5844 5844 5844 5843 5843 5843 5843 5843 5842 5842 5842 5842 5843 5843 5843 5843 5843 5843 5844 5844 5844 5845 5845 5845 5846 5846 5847 5847 5848 5848 5848 5849 5849 5848 5848 5848 5847 5846 5847 5848
5845 5845 5844 5843 5843 5842 5842 5842 5842 5842 5842 5842 5842 5842 5842 5842 5842 5842 5842 5842 5842 5843 5843 5843 5844 5844 5844 5844 5845 5846 5846 5846 5847 5847 5847 5847 5847 5847 5847 5846 5846 5846 5847
5844 5844 5843 5843 5842 5842 5841 5841 5841 5841 5841 5841 5841 5841 5841 5841 5841 5841 5841 5841 5841 5842 5842 5842 5842 5843 5843 5843 5844 5844 5845 5845 5846 5846 5846 5845 5845 5846 5845 5845 5845 5845 5845
5843 5843 5842 5842 5841 5841 5841 5841 5841 5841 5841 5841 5841 5840 5840 5840 5840 5840 5840 5840 5840 5841 5841 5841 5841 5842 5842 5842 5843 5843 5844 5844 5844 5845 5844 5844 5844 5844 5843 5843 5843 5843 5843
5842 5842 5842 5841 5841 5840 5840 5840 5840 5840 5840 5840 5840 5840 5840 5840 5840 5840 5839 5839 5840 5840 5840 5840 5840 5841 5841 5841 5842 5842 5842 5843 5843 5843 5843 5843 5842 5842 5842 5842 5841 5841 5841